Content
SEND FEEDBACK

Daily
Averages
Monthly
Summary
United States of America

ST. LOUIS, MISSOURI


Home > North America > United States > Missouri
Elevation: 163 meters     Latitude: 38 45N     Longitude: 090 22W

WEATHER
 
SELECT A DAY
Number of Records: 196,207;   Date Range: 1/1/95 - 7/7/14
 
SHARE

PRINT THIS DATA

[ ← Previous Day ]
WEATHER ALMANAC - 1 APRIL, 2013
[ Next Day → ]
[ °F ]   °C
Weather ElementAverageHighLow
Temperature5.7 °C10 °C (2:54 pm)0 °C (11:54 pm)
Dewpoint-4.9 °C-0.6 °C (1:54 am)-9.4 °C (5:54 pm)
Humidity48.5 %75 % (10:54 pm)27 % (5:54 pm)
Barometer1021.7 hPa1025.1 hPa (11:54 pm)1015.9 hPa (1:54 am)
Wind Speed12.7 km/h24.1 km/h (2:54 pm)
Wind Gust29.6 km/h (2:54 pm)
Weather ElementAverage
Visibility16.1 km
Wind DirectionSW (225.7 °)

Weather ElementTotal
Precipitation---
Heating Degree Days13.3 (Base 18.3)
Averaged from 23 records on 1 April, 2013
WEATHER CONDITIONS BREAKOUT
WIND DIRECTION BREAKOUT
WEATHER BY HOUR - 1 APRIL, 2013
[ °F ]   °C
Local TimeTemperatureDewpointHumidityBarometerVisibilityWind DirectionWind SpeedGust SpeedPrecipitationEventsConditions
1:54 AM7.2 °C-0.6 °C58 %1015.9 hPa16.1 kmNNE (20°)11.1 km/hPartly Cloudy
2:54 AM6.7 °C-2.2 °C53 %1016.6 hPa16.1 kmNorth (10°)18.5 km/hScattered Clouds
3:54 AM6.1 °C-2.2 °C56 %1017.3 hPa16.1 kmNorth (10°)9.3 km/hOvercast
4:54 AM5 °C-2.2 °C60 %1017.9 hPa16.1 kmNE (40°)14.8 km/hOvercast
5:54 AM5 °C-5 °C49 %1019.6 hPa16.1 kmNorth (360°)14.8 km/hOvercast
6:54 AM4.4 °C-4.4 °C53 %1020.7 hPa16.1 kmNorth (360°)9.3 km/hOvercast
7:54 AM3.9 °C-4.4 °C55 %1021.7 hPa16.1 kmNNW (340°)18.5 km/hOvercast
8:54 AM3.3 °C-3.3 °C62 %1022.4 hPa16.1 kmNorth (350°)13 km/hOvercast
9:54 AM4.4 °C-4.4 °C53 %1023 hPa16.1 kmNorth (360°)18.5 km/hMostly Cloudy
10:54 AM5.6 °C-3.9 °C51 %1023.4 hPa16.1 kmNNE (20°)5.6 km/hScattered Clouds
11:54 AM6.7 °C-4.4 °C45 %1023.4 hPa16.1 kmNW (320°)14.8 km/hClear
12:54 PM8.3 °C-7.2 °C33 %1023 hPa16.1 kmNorth (360°)16.7 km/h25.9 km/hScattered Clouds
1:54 PM8.9 °C-6.1 °C34 %1023 hPa16.1 kmNW (310°)14.8 km/hScattered Clouds
2:54 PM10 °C-6.7 °C31 %1022.7 hPa16.1 kmNNW (340°)24.1 km/h29.6 km/hPartly Cloudy
3:54 PM9.4 °C-7.8 °C29 %1022.7 hPa16.1 kmNNW (330°)16.7 km/hPartly Cloudy
4:54 PM9.4 °C-7.8 °C29 %1022.7 hPa16.1 kmNNW (330°)22.2 km/hPartly Cloudy
5:54 PM8.9 °C-9.4 °C27 %1022.7 hPa16.1 kmNorth (360°)16.7 km/hClear
6:54 PM7.8 °C-7.2 °C34 %1022.7 hPa16.1 kmNorth (350°)13 km/hScattered Clouds
7:54 PM5 °C-6.1 °C45 %1023 hPa16.1 kmNW (310°)11.1 km/hScattered Clouds
8:54 PM4.4 °C-6.1 °C47 %1023.4 hPa16.1 kmNW (310°)7.4 km/hClear
9:54 PM1.1 °C-4.4 °C67 %1023.7 hPa16.1 kmCalmClear
10:54 PM0.6 °C-3.3 °C75 %1024.4 hPa16.1 kmCalmClear
11:54 PM0 °C-5 °C69 %1025.1 hPa16.1 kmCalmClear
Hourly data recorded from KSUS, located 0 kilometers away from St. Louis, Missouri







STORIES FROM OUR PARTNERS